[[[{"header":{"parameterUnit":"kt","parameterCategory":2,"dx":1,"dy":1,"la1":30.253999710083008,"la2":30.299108505249023,"lo1":-89.0895004272461,"lo2":-89.04439544677734,"nx":28,"ny":28,"refTime":"2022-09-22T21:00:00:Z","depth":0,"parameterNumber":1,"parameterNumberName":"U-component_of_WINDS"},"data":[-3.2123,-3.2089,-3.2036,-3.1972,-3.1913,-3.186,-3.1823,-3.177,-3.1713,-3.1643,-3.1592,-3.1532,-3.1452,-3.1378,-3.1319,-3.1292,-3.1271,-3.1301,-3.1265,-3.1182,-3.1167,-3.1152,-3.1157,-3.1298,-3.1298,-3.1358,-3.1358,-3.1359,-3.2075,-3.2017,-3.1967,-3.1881,-3.1838,-3.1778,-3.1704,-3.1671,-3.1624,-3.1554,-3.1499,-3.1432,-3.137,-3.1276,-3.1207,-3.1189,-3.1154,-3.1174,-3.1173,-3.1161,-3.1071,-3.1077,-3.1203,-3.1203,-3.1203,-3.1203,-3.1203,-3.1203,-3.1973,-3.1955,-3.187,-3.1814,-3.1756,-3.1698,-3.167,-3.1596,-3.1545,-3.1466,-3.1408,-3.1352,-3.1269,-3.1154,-3.1101,-3.1056,-3.1023,-3.1025,-3.1025,-3.1027,-3.1038,-3.0962,-3.1041,-3.104,-3.104,-3.1039,-3.1039,0,-3.188,-3.1836,-3.1782,-3.1713,-3.1669,-3.1609,-3.1544,-3.1525,-3.1406,-3.1368,-3.1308,-3.1263,-3.1174,-3.111,-3.103,-3.0972,-3.09,-3.0886,-3.0887,-3.0914,-3.0951,-3.0931,-3.0787,-3.0882,-3.0881,-3.088,-3.0879,-3.0878,-3.1772,-3.1756,-3.1638,-3.1608,-3.1558,-3.151,-3.147,-3.1366,-3.1327,-3.123,-3.1217,-3.1152,-3.1093,-3.1003,-3.0911,-3.0843,-3.0807,-3.085,-3.0795,-3.0825,-3.0806,-3.0808,-3.0806,-3.0861,-3.0864,-3.0865,-3.0867,0,-3.1716,-3.1623,-3.1578,-3.1461,-3.1431,-3.1419,-3.1318,-3.1293,-3.1221,-3.1177,-3.116,-3.1046,-3.0987,-3.0886,-3.0797,-3.0746,-3.0725,-3.0692,-3.0755,-3.0742,-3.0771,-3.0769,-3.0878,-3.0887,-3.0741,-3.0742,-3.0743,0,-3.1586,-3.1567,-3.1428,-3.1407,-3.1384,-3.1277,-3.1257,-3.1192,-3.1115,-3.1079,-3.0982,-3.095,-3.0825,-3.0779,-3.0703,-3.0668,-3.065,-3.0609,-3.0588,-3.0616,-3.0621,-3.059,-3.0583,-3.0543,-3.0543,-3.0542,-3.0542,0,-3.1507,-3.1409,-3.1375,-3.1337,-3.1206,-3.1193,-3.1138,-3.1049,-3.1009,-3.094,-3.0913,-3.084,-3.08,-3.0746,-3.0649,-3.0616,-3.0603,-3.0537,-3.056,-3.0562,-3.0559,-3.056,-3.0685,-3.0541,-3.0541,-3.0541,-3.0541,0,-3.1385,-3.1319,-3.1283,-3.1172,-3.115,-3.1126,-3.1047,-3.1003,-3.0917,-3.0867,-3.0812,-3.0732,-3.0692,-3.0635,-3.0577,-3.0562,-3.0528,-3.0484,-3.0484,-3.0471,-3.0408,-3.0491,-3.0622,-3.0631,-3.0465,-3.0465,-3.0464,0,-3.1322,-3.1258,-3.1164,-3.1131,-3.1087,-3.0979,-3.0951,-3.0876,-3.0807,-3.0759,-3.0681,-3.0626,-3.0561,-3.0529,-3.0515,-3.0431,-3.0452,-3.0426,-3.0356,-3.0354,-3.0382,-3.0502,-3.0545,-3.0606,-3.0454,-3.0455,-3.0456,0,-3.1259,-3.1098,-3.1098,-3.105,-3.0932,-3.0893,-3.0861,-3.0782,-3.0756,-3.068,-3.0649,-3.0568,-3.0516,-3.0462,-3.0388,-3.0378,-3.0435,-3.0322,-3.0317,-3.0345,-3.044,-3.0483,-3.0493,-3.0387,-3.0388,-3.0389,-3.0449,0,-3.1096,-3.1049,-3.1046,-3.0939,-3.0893,-3.0865,-3.0755,-3.0721,-3.0655,-3.0581,-3.0532,-3.0439,-3.0355,-3.0339,-3.0272,-3.0282,-3.0263,-3.0206,-3.0139,-3.0219,-3.0236,-3.0243,-3.0124,-3.0122,-3.012,-3.0118,0,0,-3.1058,-3.0988,-3.0882,-3.0845,-3.0799,-3.0684,-3.0664,-3.0605,-3.0488,-3.0458,-3.0421,-3.0292,-3.0217,-3.0168,-3.0185,-3.015,-3.0141,-3.0116,-3.0182,-3.019,-3.0197,-3.0217,-3.0226,-3.0114,-3.0113,-3.0112,-3.0111,0,-3.0974,-3.0903,-3.0884,-3.0819,-3.0718,-3.0639,-3.0636,-3.0514,-3.0464,-3.0414,-3.0317,-3.0274,-3.0171,-3.0104,-3.0057,-3.0121,-3.0047,-3.0103,-3.0176,-3.0164,-3.0175,-3.0184,-3.0206,-3.0216,-3.0106,-3.0106,-3.0107,0,-3.0891,-3.0803,-3.0781,-3.067,-3.0601,-3.0557,-3.0462,-3.0417,-3.0383,-3.0253,-3.0204,-3.0136,-3.0036,-3.0004,-2.9985,-2.995,-2.9968,-2.9941,-2.9952,-2.9946,-2.9929,-2.9942,-2.9953,-2.98,-2.98,-2.9799,0,0,-3.0834,-3.0789,-3.0657,-3.0643,-3.0607,-3.0489,-3.0453,-3.0381,-3.0295,-3.026,-3.017,-3.0089,-3.0027,-2.9989,-2.9925,-2.9906,-2.9876,-2.9908,-2.9922,-2.9934,-2.9936,-2.9922,-2.9935,-2.9797,-2.9797,-2.9797,0,0,-3.0804,-3.0652,-3.06,-3.0569,-3.0493,-3.0359,-3.0354,-3.0286,-3.0217,-3.0207,-3.0081,-3.0053,-3.002,-2.9956,-2.994,-2.9899,-2.9835,-2.9836,-2.9941,-2.9958,-2.9972,-2.9987,-2.9825,0,0,0,0,0,-3.066,-3.0671,-3.0626,-3.0604,-3.0459,-3.0386,-3.0366,-3.0263,-3.0222,-3.0221,-3.0135,-3.0057,-2.9922,-2.9905,-2.9884,-2.9901,-2.9768,-2.9773,-2.9778,-2.9908,-2.9927,-2.9943,0,0,0,0,0,0,-3.0651,-3.0624,-3.0625,-3.0495,-3.0461,-3.0384,-3.0291,-3.0263,-3.0219,-3.0206,-3.0077,-3.0053,-2.9963,-2.9908,-2.9891,-2.991,-2.983,-2.977,-2.9775,-2.9779,-2.9915,-2.993,-2.9943,0,0,0,0,0,-3.0643,-3.0621,-3.0416,-3.0493,-3.0464,-3.0331,-3.029,-3.0265,-3.0229,-3.0094,-3.0068,-3.0156,-2.9966,-2.9944,-2.9898,-2.9921,-2.9841,-2.9835,-2.9773,-2.9777,-2.978,-2.9922,0,0,0,0,0,0,-3.0636,-3.0598,-3.0408,-3.0395,-3.048,-3.0333,-3.0306,-3.0268,-3.0118,-3.0093,-3.0167,-3.0158,-2.9969,-2.9951,-2.9935,-2.993,-2.9851,-2.9844,-2.9841,-2.9776,-2.9778,-2.9781,0,0,0,0,0,0,-3.0608,-3.0588,-3.0402,-3.0391,-3.0376,-3.0335,-3.0311,-3.0255,-3.0118,-3.0199,-3.0187,-3.0165,-2.9992,-2.9956,-2.9943,-2.986,-2.9858,-2.9852,-2.9848,-2.9845,-2.9778,-2.978,0,0,0,0,0,0,-3.0598,-3.058,-3.0394,-3.0382,-3.0369,-3.0218,-3.0283,-3.014,-3.0113,-3.0207,-3.0107,-3.0104,-2.9999,-2.9984,-2.9949,-2.9872,-2.9863,-2.9857,-2.9853,-2.9851,-2.9849,0,0,0,0,0,0,0,-3.0589,-3.0733,-3.0484,-3.0375,-3.0363,-3.0277,-3.0274,-3.027,-3.0112,-3.011,-3.0107,-3.0105,-2.9891,-2.9885,-2.9878,-2.9883,0,0,-2.9858,-2.9855,0,0,0,0,0,0,0,0,-3.0739,-3.0735,-3.0484,-3.0481,-3.0479,-3.0277,-3.0274,-3.0271,-3.0112,-3.011,-3.0108,-3.0106,-2.989,-2.9884,-2.9879,0,0,0,0,0,0,0,0,0,0,0,0,0,0,0,-3.0484,-3.0482,0,-3.0276,-3.0274,-3.0272,-3.0111,-3.011,-3.0108,-3.0107,-2.9888,-2.9884,-2.9879,0,0,0,0,0,0,0,0,0,0,0,0,0,0,0,0,0,0,0,0,0,0,0,0,0,0,0,0,0,0,0,0,0,0,0,0,0,0,0,0,0,0,0,0,0,0,0,0,0,0,0,0,0,0,0,0,0,0,0,0,0,0,0,0,0,0,0,0,0]}],[{"header":{"parameterUnit":"kt","parameterCategory":2,"dx":1,"dy":1,"la1":30.253999710083008,"la2":30.299108505249023,"lo1":-89.0895004272461,"lo2":-89.04439544677734,"nx":28,"ny":28,"refTime":"2022-09-22T21:00:00:Z","depth":0,"parameterNumber":2,"parameterNumberName":"V-component_of_WINDS"},"data":[3.7413,3.7375,3.7377,3.7334,3.7328,3.7298,3.7287,3.7273,3.7262,3.7224,3.7202,3.7199,3.7187,3.7159,3.7133,3.7132,3.7118,3.7103,3.7103,3.7174,3.7183,3.7192,3.7201,3.7102,3.7102,3.7028,3.7027,3.7027,3.746,3.7454,3.7433,3.7413,3.7394,3.741,3.7395,3.7377,3.7349,3.7336,3.7315,3.7281,3.7255,3.7248,3.7221,3.72,3.7204,3.7192,3.7191,3.7188,3.7265,3.7274,3.7189,3.7189,3.7189,3.7189,3.7189,3.7189,3.7544,3.7523,3.7512,3.7489,3.748,3.7467,3.7445,3.7443,3.7421,3.7396,3.7403,3.7371,3.7356,3.7326,3.7316,3.7288,3.7301,3.7288,3.7283,3.7278,3.7272,3.7369,3.7285,3.7285,3.7285,3.7286,3.7286,0,3.7606,3.7609,3.759,3.7571,3.7554,3.7539,3.7526,3.7513,3.752,3.7501,3.7474,3.7458,3.7427,3.7399,3.7376,3.7368,3.7378,3.7382,3.7371,3.7364,3.7361,3.7357,3.7477,3.7383,3.7384,3.7385,3.7385,3.7385,3.7687,3.7663,3.7655,3.7641,3.7634,3.7612,3.7598,3.7607,3.7592,3.7576,3.7555,3.753,3.7509,3.7465,3.746,3.7435,3.7439,3.7403,3.7436,3.7431,3.7432,3.7432,3.7427,3.7394,3.7393,3.7392,3.7392,0,3.7731,3.7736,3.77,3.7694,3.7692,3.7666,3.7659,3.7638,3.7639,3.7608,3.7602,3.7601,3.7574,3.7576,3.7546,3.7547,3.7496,3.7504,3.75,3.75,3.7463,3.7465,3.7355,3.7338,3.7446,3.7445,3.7445,0,3.78,3.7769,3.7777,3.7756,3.7721,3.7731,3.7695,3.7692,3.7683,3.7659,3.7675,3.7652,3.7659,3.7636,3.7638,3.7598,3.7594,3.7591,3.759,3.7586,3.7586,3.7574,3.7577,3.7599,3.7599,3.76,3.76,0,3.7866,3.7836,3.7803,3.7796,3.7787,3.777,3.7765,3.7756,3.7743,3.7726,3.7717,3.7697,3.7685,3.7668,3.7671,3.7693,3.7624,3.7655,3.762,3.762,3.7602,3.7602,3.7508,3.7601,3.7601,3.7601,3.7601,0,3.7921,3.7907,3.786,3.7851,3.7843,3.7821,3.7803,3.7785,3.7774,3.7774,3.7762,3.7771,3.7741,3.777,3.7726,3.7753,3.774,3.7735,3.7733,3.7726,3.7757,3.7698,3.7613,3.7601,3.7724,3.7725,3.7726,0,3.7992,3.7947,3.7955,3.791,3.7889,3.7907,3.7883,3.7874,3.7873,3.7853,3.7852,3.783,3.7853,3.7846,3.7825,3.7821,3.7786,3.7827,3.7791,3.779,3.7789,3.7712,3.7696,3.7632,3.774,3.7738,3.7737,0,3.8047,3.8039,3.8031,3.8023,3.8014,3.7998,3.7971,3.7952,3.7938,3.7928,3.7903,3.7875,3.7889,3.7878,3.7885,3.7862,3.781,3.788,3.788,3.7863,3.7749,3.7733,3.7723,3.7819,3.7817,3.7816,3.7748,0,3.8121,3.8101,3.808,3.8066,3.8054,3.8028,3.8033,3.8019,3.8027,3.8027,3.7993,3.7987,3.7967,3.7958,3.7965,3.7915,3.7923,3.7939,3.7965,3.7916,3.7893,3.7884,3.7998,3.7999,3.7999,3.8,0,0,3.8185,3.8157,3.8168,3.8144,3.8135,3.8155,3.8125,3.8119,3.8104,3.8096,3.8111,3.8069,3.8064,3.8021,3.8006,3.8,3.799,3.8008,3.794,3.7934,3.7927,3.7903,3.7894,3.8001,3.8001,3.8002,3.8002,0,3.8213,3.8211,3.8184,3.8178,3.8169,3.8172,3.8165,3.816,3.8158,3.8128,3.8142,3.8123,3.8091,3.8081,3.8072,3.8014,3.8024,3.8008,3.7973,3.7947,3.794,3.7933,3.7907,3.7899,3.8003,3.8003,3.8003,0,3.8265,3.8263,3.8251,3.8234,3.8228,3.8208,3.8236,3.8215,3.8198,3.822,3.8189,3.8186,3.8175,3.8137,3.812,3.8133,3.8055,3.8083,3.8078,3.8075,3.805,3.8041,3.8033,3.8137,3.8138,3.8138,0,0,3.8288,3.8271,3.827,3.824,3.8236,3.8239,3.823,3.8236,3.8228,3.8224,3.8221,3.821,3.8191,3.8178,3.8161,3.812,3.8115,3.8099,3.8092,3.8087,3.8081,3.8054,3.8046,3.814,3.814,3.814,0,0,3.8298,3.8297,3.8307,3.8273,3.8265,3.8262,3.8242,3.8253,3.8239,3.8242,3.8251,3.8249,3.8214,3.8211,3.8233,3.8169,3.8195,3.819,3.8172,3.8164,3.8158,3.8158,3.826,0,0,0,0,0,3.8329,3.8297,3.8306,3.8302,3.828,3.8257,3.8254,3.8262,3.8279,3.8263,3.8262,3.8276,3.8224,3.8244,3.8238,3.8212,3.8162,3.8158,3.8154,3.8122,3.8113,3.8106,0,0,0,0,0,0,3.8327,3.8322,3.8307,3.8303,3.8298,3.8258,3.8289,3.829,3.8281,3.8284,3.8276,3.8275,3.8281,3.8247,3.8242,3.8217,3.8261,3.816,3.8157,3.8154,3.8119,3.8112,3.8106,0,0,0,0,0,3.8326,3.8322,3.8285,3.8303,3.8299,3.8302,3.829,3.8292,3.8284,3.8283,3.8283,3.8291,3.828,3.8276,3.8244,3.8219,3.8265,3.8263,3.8158,3.8155,3.8153,3.8115,0,0,0,0,0,0,3.8325,3.8322,3.8285,3.8284,3.8316,3.8304,3.8302,3.8293,3.8284,3.8284,3.8299,3.8301,3.8279,3.8276,3.8273,3.822,3.8268,3.8266,3.8265,3.8156,3.8154,3.8152,0,0,0,0,0,0,3.8324,3.8321,3.8284,3.83,3.8301,3.8306,3.8305,3.8279,3.8284,3.83,3.8302,3.83,3.8283,3.8276,3.8273,3.8233,3.827,3.8269,3.8267,3.8266,3.8154,3.8153,0,0,0,0,0,0,3.8323,3.832,3.8301,3.8301,3.8302,3.829,3.8283,3.826,3.8299,3.83,3.8302,3.8304,3.8282,3.828,3.8274,3.8235,3.8234,3.827,3.8269,3.8268,3.8268,0,0,0,0,0,0,0,3.8322,3.8341,3.8291,3.8302,3.8303,3.8274,3.8273,3.8273,3.8299,3.8301,3.8302,3.8303,3.8282,3.8279,3.8277,3.8236,0,0,3.8271,3.827,0,0,0,0,0,0,0,0,3.8342,3.8341,3.8291,3.8291,3.8291,3.8274,3.8273,3.8273,3.83,3.8301,3.8302,3.8303,3.8281,3.8279,3.8278,0,0,0,0,0,0,0,0,0,0,0,0,0,0,0,3.8291,3.8291,0,3.8274,3.8273,3.8273,3.83,3.8301,3.8302,3.8302,3.8281,3.8279,3.8278,0,0,0,0,0,0,0,0,0,0,0,0,0,0,0,0,0,0,0,0,0,0,0,0,0,0,0,0,0,0,0,0,0,0,0,0,0,0,0,0,0,0,0,0,0,0,0,0,0,0,0,0,0,0,0,0,0,0,0,0,0,0,0,0,0,0,0,0,0]}]]]